CW5709 Weather Reports


Display with metric or nautical units.
time (UTC)temp
F
wind
direction
speed
MPH
gust
MPH
rain 1hr
in
rain 24hr
in
rain mn
in
humidity
%
barometer
mb
20260903133037 54 0.0 0.0 0.00 0.48 0.03 94 1010.5
20260903131510 54 0.0 0.0 0.00 0.48 0.03 94 1010.6
20260903130019 54 0.0 0.0 0.00 0.48 0.03 94 1010.6
20260903124527 54 0.0 0.0 0.00 0.48 0.03 94 1010.6
20260903123028 54 0.0 0.0 0.00 0.48 0.03 94 1010.6
20260903121530 54 0.0 0.0 0.00 0.48 0.03 94 1010.6
20260903120016 54 0.0 0.0 0.00 0.48 0.03 94 1010.7
20260903114526 54 0.0 0.0 0.00 0.48 0.03 94 1010.7
20260903113027 54 0.0 0.0 0.00 0.48 0.03 94 1010.8
20260903111532 54 0.0 0.0 0.01 0.48 0.03 94 1010.8
20260903110033 54 0.0 0.0 0.01 0.48 0.03 94 1010.8
20260903104517 54 0.0 0.0 0.02 0.48 0.03 94 1010.9
20260903103026 54 0.0 0.0 0.02 0.48 0.03 94 1011.0
20260903101532 54 0.0 0.0 0.01 0.47 0.02 94 1011.1
20260903100031 54 0.0 0.0 0.01 0.47 0.02 94 1011.1
20260903094539 54 0.0 0.0 0.00 0.46 0.01 94 1011.0
20260903093035 54 0.0 0.0 0.00 0.46 0.01 94 1011.0
20260903091527 54 0.0 0.0 0.00 0.46 0.01 94 1011.1
20260903090034 54 0.0 0.0 0.00 0.46 0.01 94 1011.3
20260903084532 55 0.0 0.0 0.00 0.46 0.01 94 1011.3
20260903083017 55 0.0 0.0 0.01 0.46 0.01 94 1011.3
20260903081537 55 0.0 0.0 0.01 0.46 0.01 94 1011.4
20260903080006 55 0.0 0.0 0.01 0.46 0.01 94 1011.3
20260903074509 55 0.0 0.0 0.01 0.46 0.01 94 1011.5
20260903073021 55 0.0 0.0 0.00 0.45 0.00 94 1011.4
20260903071520 55 0.0 0.0 0.00 0.45 0.00 94 1011.2
20260903070025 55 0.0 0.0 0.00 0.45 0.00 94 1011.2
20260903064508 55 0.0 0.0 0.00 0.45 0.45 94 1011.4
20260903063015 55 0.0 0.0 0.00 0.45 0.45 94 1011.2
20260903061517 55 0.0 0.0 0.00 0.45 0.45 94 1011.2
20260903060026 55 0.0 0.0 0.00 0.45 0.45 94 1011.3
20260903054527 55 0.0 0.0 0.00 0.45 0.45 94 1011.1
20260903053010 55 0.0 0.0 0.00 0.45 0.45 94 1011.3
20260903051516 55 0.0 0.0 0.00 0.45 0.45 94 1011.3
20260903050024 54 0.0 0.0 0.00 0.45 0.45 94 1011.1
20260903044527 54 0.0 0.0 0.00 0.45 0.45 94 1011.1
20260903043031 55 0.0 0.0 0.00 0.45 0.45 94 1011.0
20260903041513 55 0.0 0.0 0.00 0.45 0.45 94 1010.7
20260903040017 55 0.0 0.0 0.00 0.45 0.45 94 1010.4
20260903034524 55 0.0 0.0 0.00 0.45 0.45 94 1010.3
20260903033030 56 0.0 0.0 0.00 0.45 0.45 94 1010.1
20260903031535 56 0.0 0.0 0.00 0.45 0.45 94 1010.1
20260903030016 56 0.0 0.0 0.00 0.45 0.45 94 1010.0
20260903024523 57 0.0 0.0 0.00 0.45 0.45 94 1010.1
20260903023029 57 0.0 0.0 0.00 0.45 0.45 94 1009.8
20260903021542 58 0.0 0.0 0.00 0.45 0.45 94 1009.4
20260903020031 58 0.0 0.0 0.00 0.45 0.45 94 1009.4
20260903014516 58 0.0 0.0 0.00 0.45 0.45 94 1009.3
20260903013023 58 0.0 0.0 0.00 0.45 0.45 94 1009.2
20260903011528 57 0.0 0.0 0.00 0.45 0.45 94 1009.1
20260903010032 57 0.0 0.0 0.00 0.45 0.45 94 1009.3
20260903004534 57 0.0 0.0 0.01 0.45 0.45 94 1009.1
20260903003015 58 0.0 0.0 0.03 0.45 0.45 94 1009.0
20260903001525 58 0.0 0.0 0.05 0.45 0.45 94 1009.0
20260903000031 59 0.0 0.0 0.07 0.45 0.45 94 1008.9
20260902234534 59 0.0 0.0 0.08 0.44 0.44 94 1008.8
20260902233032 59 0.0 0.0 0.08 0.42 0.42 94 1008.6
20260902231531 59 0.0 0.0 0.08 0.40 0.40 94 1008.6
20260902230004 59 0.0 0.0 0.08 0.38 0.38 94 1008.3
20260902224507 59 0.0 0.0 0.08 0.36 0.36 94 1008.1
20260902223011 59 0.0 0.0 0.08 0.34 0.34 94 1008.0
20260902221517 59 0.0 0.0 0.07 0.32 0.32 94 1007.9
20260902220019 59 0.0 0.0 0.05 0.30 0.30 94 1007.8
20260902214507 59 0.0 0.0 0.03 0.28 0.28 94 1007.7
20260902213008 59 0.0 0.0 0.02 0.26 0.26 94 1007.7
20260902211513 59 0.0 0.0 0.01 0.25 0.25 94 1007.6
20260902210016 59 0.0 0.0 0.02 0.25 0.25 93 1007.6
20260902204518 59 0.0 0.0 0.02 0.25 0.25 93 1007.4
20260902203007 59 0.0 0.0 0.02 0.24 0.24 94 1007.3
20260902201518 59 0.0 0.0 0.02 0.24 0.24 93 1007.2
20260902200021 59 0.0 0.0 0.01 0.23 0.23 93 1007.2
20260902194524 58 0.0 0.0 0.02 0.23 0.23 93 1007.2
20260902193020 58 0.0 0.0 0.02 0.22 0.22 93 1007.3
20260902191513 58 0.0 0.0 0.04 0.22 0.22 93 1007.2
20260902190019 58 0.0 0.0 0.04 0.22 0.22 92 1007.2
20260902184527 57 0.0 0.0 0.05 0.21 0.21 92 1007.3
20260902183024 57 0.0 0.0 0.08 0.20 0.20 91 1007.4
20260902181522 57 0.0 0.0 0.08 0.18 0.18 91 1007.2
20260902180012 57 0.0 0.0 0.09 0.18 0.18 90 1007.1
20260902174519 58 0.0 0.0 0.09 0.16 0.16 89 1007.3
20260902173022 58 0.0 0.0 0.06 0.12 0.12 89 1007.3
20260902171526 58 0.0 0.0 0.06 0.10 0.10 88 1007.5
20260902170027 58 0.0 0.0 0.06 0.09 0.09 87 1007.7
20260902164515 58 0.0 0.0 0.07 0.07 0.07 87 1007.8
20260902163027 58 0.0 0.0 0.06 0.06 0.06 86 1007.8
20260902161535 58 0.0 0.0 0.04 0.04 0.04 85 1007.8
20260902160032 59 0.0 0.0 0.03 0.03 0.03 84 1007.7
20260902154536 59 0.0 0.0 0.00 0.00 0.00 83 1007.7
20260902153020 59 0.0 0.0 0.00 0.00 0.00 82 1007.6
20260902151527 59 0.0 0.0 0.00 0.00 0.00 82 1007.7
20260902150032 58 0.0 0.0 0.00 0.00 0.00 83 1007.8
20260902144531 58 0.0 0.0 0.00 0.00 0.00 84 1007.9
20260902143031 58 0.0 0.0 0.00 0.00 0.00 84 1008.0
20260902141524 58 0.0 0.0 0.00 0.00 0.00 84 1008.1
20260902140028 58 0.0 0.0 0.00 0.00 0.00 84 1008.3
20260902134509 58 0.0 0.0 0.00 0.00 0.00 84 1008.3